Skip Page Navigation
NASA JPL Caltech
NASA Logo - Jet Propulsion Laboratory + View the NASA Portal
+ Center for Near-Earth Object Studies
JPL Home Earth Solar System Stars & Galaxies Technology
JPL Solar System Dynamics
BODIES ORBITS EPHEMERIDES TOOLS PHYSICAL DATA DISCOVERY FAQ SITE MAP
JPL Small-Body Database Browser
Search: [ help ]  
183543 (2003 HN25)
Classification: Main-belt Asteroid          SPK-ID: 2183543
Ephemeris | Orbit Diagram | Orbital Elements | Mission Design | Physical Parameters | Discovery Circumstances | Close-Approach Data ]

[ show orbit diagram ]
Orbital Elements at Epoch 2459000.5 (2020-May-31.0) TDB
Reference: JPL 11 (heliocentric ecliptic J2000)
 Element Value Uncertainty (1-sigma)   Units 
e .0510286065450993 5.7007e-08  
a 2.933252205833473 3.5946e-08 au
q 2.783572433124452 1.6449e-07 au
i 1.760240475027054 6.7496e-06 deg
node 181.810341247112 0.00021618 deg
peri 54.72367127611538 0.00022922 deg
M 117.3362780768011 7.2809e-05 deg
tp 2458402.429552349321
(2018-Oct-10.92955235)
0.00037131 TDB
period 1834.942821463271
5.02
3.373e-05
9.235e-08
d
yr
n .1961913994207835 3.6064e-09 deg/d
Q 3.082931978542494 3.778e-08 au
  Orbit Determination Parameters
   # obs. used (total)      167  
   data-arc span      6395 days (17.51 yr)  
   first obs. used      2000-10-19  
   last obs. used      2018-04-23  
   planetary ephem.      DE431  
   SB-pert. ephem.      SB431-N16  
   condition code      0  
   norm. resid. RMS      .5999  
   source      ORB  
   producer      Otto Matic  
   solution date      2018-May-07 05:56:29  

Additional Information
 Earth MOID = 1.77213 au 
 Jupiter MOID = 1.89927 au 
 T_jup = 3.273 
[ show covariance matrix ]

Ephemeris | Orbit Diagram | Orbital Elements | Mission Design | Physical Parameters | Discovery Circumstances | Close-Approach Data ]

Physical Parameter Table
Parameter Symbol Value Units Sigma Reference Notes
absolute magnitude H 16.3   n/a MPO475546  

183543 (2003 HN25)          Discovered 2003-Apr-25 by Spacewatch at Kitt Peak
Reference: 20080420/Numbers.arcLast Updated: 2008-04-23

[ show close-approach data ]
Alternate Designations
 2003 HN25 = 2005 TK58 
Ephemeris | Orbit Diagram | Orbital Elements | Mission Design | Physical Parameters | Discovery Circumstances | Close-Approach Data ]
ABOUT SSD CREDITS/AWARDS PRIVACY/COPYRIGHT GLOSSARY LINKS
FirstGov 2020-Aug-12 16:14 UT
(server date/time)  
NASA Home Page
Site Manager:   Ryan S. Park
Webmaster  Alan B. Chamberlin